2103700031,2006,03,01,00,0.019
2103700031,2006,03,01,01,0.021
2103700031,2006,03,01,02,0.021
2103700031,2006,03,01,03,0.02
2103700031,2006,03,01,04,0.019
2103700031,2006,03,01,05,0.015
2103700031,2006,03,01,06,0.012
2103700031,2006,03,01,07,0.009
2103700031,2006,03,01,08,0.01
2103700031,2006,03,01,09,0.013
2103700031,2006,03,01,10,0.015
2103700031,2006,03,01,11,0.014
2103700031,2006,03,01,12,0.019
2103700031,2006,03,01,13,0.02
2103700031,2006,03,01,14,0.018
2103700031,2006,03,01,15,0.019
2103700031,2006,03,01,16,0.017
2103700031,2006,03,01,17,0.015
2103700031,2006,03,01,18,0.01
2103700031,2006,03,01,19,0.01
2103700031,2006,03,01,20,0.007
2103700031,2006,03,01,21,0.01
2103700031,2006,03,01,22,0.006
2103700031,2006,03,01,23,0.007
2103700031,2006,03,02,00,0.004
2103700031,2006,03,02,01,0.001
2103700031,2006,03,02,02,0.006
2103700031,2006,03,02,03,0.001
2103700031,2006,03,02,04,0.018
2103700031,2006,03,02,05,0.026
2103700031,2006,03,02,06,0.019
2103700031,2006,03,02,07,0.016
2103700031,2006,03,02,08,0.013
2103700031,2006,03,02,09,0.016
2103700031,2006,03,02,10,0.018
2103700031,2006,03,02,11,0.021
2103700031,2006,03,02,12,0.023
2103700031,2006,03,02,13,0.028
2103700031,2006,03,02,14,0.03
2103700031,2006,03,02,15,0.019
2103700031,2006,03,02,16,0.016
2103700031,2006,03,02,17,0.015
2103700031,2006,03,02,18,0.015
2103700031,2006,03,02,19,0.014
2103700031,2006,03,02,20,0.017
2103700031,2006,03,02,21,0.018
2103700031,2006,03,02,22,0.023
2103700031,2006,03,02,23,0.028
2103700031,2006,03,03,00,0.031
2103700031,2006,03,03,01,0.029
2103700031,2006,03,03,02,0.026
2103700031,2006,03,03,03,0.031
2103700031,2006,03,03,04,0.031
2103700031,2006,03,03,05,0.033
2103700031,2006,03,03,06,0.031
2103700031,2006,03,03,07,0.025
2103700031,2006,03,03,08,0.027
2103700031,2006,03,03,09,0.034
2103700031,2006,03,03,10,0.037
2103700031,2006,03,03,11,0.037
2103700031,2006,03,03,12,0.037
2103700031,2006,03,03,13,0.037
2103700031,2006,03,03,14,0.036
2103700031,2006,03,03,15,0.036
2103700031,2006,03,03,16,0.036
2103700031,2006,03,03,17,0.035
2103700031,2006,03,03,18,0.033
2103700031,2006,03,03,19,0.026
2103700031,2006,03,03,20,0.023
2103700031,2006,03,03,21,0.019
2103700031,2006,03,03,22,0.017
2103700031,2006,03,03,23,0.022
2103700031,2006,03,04,00,0.023
2103700031,2006,03,04,01,0.006
2103700031,2006,03,04,02,0.001
2103700031,2006,03,04,03,0
2103700031,2006,03,04,04,0
2103700031,2006,03,04,05,0
2103700031,2006,03,04,06,0.003
2103700031,2006,03,04,07,0.004
2103700031,2006,03,04,08,0.02
2103700031,2006,03,04,09,0.02
2103700031,2006,03,04,10,0.026
2103700031,2006,03,04,11,0.029
2103700031,2006,03,04,12,0.028
2103700031,2006,03,04,13,0.028
2103700031,2006,03,04,14,0.032
2103700031,2006,03,04,15,0.035
2103700031,2006,03,04,16,0.037
2103700031,2006,03,04,17,0.036
2103700031,2006,03,04,18,0.034
2103700031,2006,03,04,19,0.007
2103700031,2006,03,04,20,0.009
2103700031,2006,03,04,21,0
2103700031,2006,03,04,22,0
2103700031,2006,03,04,23,0
2103700031,2006,03,05,00,0
2103700031,2006,03,05,01,0
2103700031,2006,03,05,02,0
2103700031,2006,03,05,03,0
2103700031,2006,03,05,04,99
2103700031,2006,03,05,05,0
2103700031,2006,03,05,06,0
2103700031,2006,03,05,07,0
2103700031,2006,03,05,08,0.009
2103700031,2006,03,05,09,0.015
2103700031,2006,03,05,10,0.025
2103700031,2006,03,05,11,0.028
2103700031,2006,03,05,12,0.029
2103700031,2006,03,05,13,0.029
2103700031,2006,03,05,14,0.028
2103700031,2006,03,05,15,0.029
2103700031,2006,03,05,16,0.033
2103700031,2006,03,05,17,0.035
2103700031,2006,03,05,18,0.032
2103700031,2006,03,05,19,0.031
2103700031,2006,03,05,20,0.027
2103700031,2006,03,05,21,0.022
2103700031,2006,03,05,22,0.021
2103700031,2006,03,05,23,0.014
2103700031,2006,03,06,00,0.011
2103700031,2006,03,06,01,0.015
2103700031,2006,03,06,02,0.015
2103700031,2006,03,06,03,0.015
2103700031,2006,03,06,04,0.016
2103700031,2006,03,06,05,0.016
2103700031,2006,03,06,06,0.015
2103700031,2006,03,06,07,0.011
2103700031,2006,03,06,08,0.003
2103700031,2006,03,06,09,0.002
2103700031,2006,03,06,10,0.006
2103700031,2006,03,06,11,0.011
2103700031,2006,03,06,12,0.013
2103700031,2006,03,06,13,0.011
2103700031,2006,03,06,14,0.008
2103700031,2006,03,06,15,0.007
2103700031,2006,03,06,16,0.004
2103700031,2006,03,06,17,0.001
2103700031,2006,03,06,18,0
2103700031,2006,03,06,19,0
2103700031,2006,03,06,20,0.003
2103700031,2006,03,06,21,0.011
2103700031,2006,03,06,22,0.014
2103700031,2006,03,06,23,0.022
2103700031,2006,03,07,00,0.025
2103700031,2006,03,07,01,0.023
2103700031,2006,03,07,02,0.013
2103700031,2006,03,07,03,0.008
2103700031,2006,03,07,04,0.009
2103700031,2006,03,07,05,0.005
2103700031,2006,03,07,06,0.004
2103700031,2006,03,07,07,0.005
2103700031,2006,03,07,08,0.014
2103700031,2006,03,07,09,0.02
2103700031,2006,03,07,10,0.023
2103700031,2006,03,07,11,0.029
2103700031,2006,03,07,12,0.032
2103700031,2006,03,07,13,0.035
2103700031,2006,03,07,14,0.037
2103700031,2006,03,07,15,0.039
2103700031,2006,03,07,16,0.036
2103700031,2006,03,07,17,0.032
2103700031,2006,03,07,18,0.025
2103700031,2006,03,07,19,0.015
2103700031,2006,03,07,20,0.014
2103700031,2006,03,07,21,0.027
2103700031,2006,03,07,22,0.03
2103700031,2006,03,07,23,0.023
2103700031,2006,03,08,00,0.021
2103700031,2006,03,08,01,0.027
2103700031,2006,03,08,02,0.021
2103700031,2006,03,08,03,0.013
2103700031,2006,03,08,04,0.016
2103700031,2006,03,08,05,0.015
2103700031,2006,03,08,06,0.014
2103700031,2006,03,08,07,0.014
2103700031,2006,03,08,08,0.022
2103700031,2006,03,08,09,0.016
2103700031,2006,03,08,10,0.011
2103700031,2006,03,08,11,0.012
2103700031,2006,03,08,12,0.01
2103700031,2006,03,08,13,0.016
2103700031,2006,03,08,14,0.014
2103700031,2006,03,08,15,0.018
2103700031,2006,03,08,16,0.02
2103700031,2006,03,08,17,0.028
2103700031,2006,03,08,18,0.028
2103700031,2006,03,08,19,0.027
2103700031,2006,03,08,20,0.029
2103700031,2006,03,08,21,0.03
2103700031,2006,03,08,22,0.031
2103700031,2006,03,08,23,0.036
2103700031,2006,03,09,00,0.04
2103700031,2006,03,09,01,0.045
2103700031,2006,03,09,02,0.045
2103700031,2006,03,09,03,0.047
2103700031,2006,03,09,04,0.041
2103700031,2006,03,09,05,0.042
2103700031,2006,03,09,06,0.036
2103700031,2006,03,09,07,0.009
2103700031,2006,03,09,08,0.017
2103700031,2006,03,09,09,0.038
2103700031,2006,03,09,10,0.038
2103700031,2006,03,09,11,0.036
2103700031,2006,03,09,12,0.034
2103700031,2006,03,09,13,0.03
2103700031,2006,03,09,14,0.025
2103700031,2006,03,09,15,0.026
2103700031,2006,03,09,16,0.038
2103700031,2006,03,09,17,0.042
2103700031,2006,03,09,18,0.044
2103700031,2006,03,09,19,0.029
2103700031,2006,03,09,20,0.015
2103700031,2006,03,09,21,0.019
2103700031,2006,03,09,22,0.028
2103700031,2006,03,09,23,0.039
2103700031,2006,03,10,00,0.042
2103700031,2006,03,10,01,0.049
2103700031,2006,03,10,02,0.046
2103700031,2006,03,10,03,0.044
2103700031,2006,03,10,04,0.04
2103700031,2006,03,10,05,0.036
2103700031,2006,03,10,06,0.031
2103700031,2006,03,10,07,0.023
2103700031,2006,03,10,08,0.015
2103700031,2006,03,10,09,0.02
2103700031,2006,03,10,10,0.021
2103700031,2006,03,10,11,0.021
2103700031,2006,03,10,12,0.018
2103700031,2006,03,10,13,0.014
2103700031,2006,03,10,14,0.017
2103700031,2006,03,10,15,0.027
2103700031,2006,03,10,16,0.029
2103700031,2006,03,10,17,0.027
2103700031,2006,03,10,18,0.017
2103700031,2006,03,10,19,0.002
2103700031,2006,03,10,20,0.004
2103700031,2006,03,10,21,0.012
2103700031,2006,03,10,22,0.007
2103700031,2006,03,10,23,0.007
2103700031,2006,03,11,00,0.001
2103700031,2006,03,11,01,0.004
2103700031,2006,03,11,02,0.006
2103700031,2006,03,11,03,0.005
2103700031,2006,03,11,04,0.007
2103700031,2006,03,11,05,0.006
2103700031,2006,03,11,06,0.007
2103700031,2006,03,11,07,0.007
2103700031,2006,03,11,08,0.005
2103700031,2006,03,11,09,0.001
2103700031,2006,03,11,10,0.001
2103700031,2006,03,11,11,0.008
2103700031,2006,03,11,12,0.018
2103700031,2006,03,11,13,0.028
2103700031,2006,03,11,14,0.035
2103700031,2006,03,11,15,0.031
2103700031,2006,03,11,16,0.021
2103700031,2006,03,11,17,0.032
2103700031,2006,03,11,18,0.034
2103700031,2006,03,11,19,0.001
2103700031,2006,03,11,20,0.012
2103700031,2006,03,11,21,0
2103700031,2006,03,11,22,0.011
2103700031,2006,03,11,23,0.022
2103700031,2006,03,12,00,0.019
2103700031,2006,03,12,01,0.022
2103700031,2006,03,12,02,0.021
2103700031,2006,03,12,03,0.019
2103700031,2006,03,12,04,0.018
2103700031,2006,03,12,05,0.01
2103700031,2006,03,12,06,0.007
2103700031,2006,03,12,07,0.01
2103700031,2006,03,12,08,0.012
2103700031,2006,03,12,09,0.015
2103700031,2006,03,12,10,0.017
2103700031,2006,03,12,11,0.02
2103700031,2006,03,12,12,0.023
2103700031,2006,03,12,13,0.027
2103700031,2006,03,12,14,0.028
2103700031,2006,03,12,15,0.027
2103700031,2006,03,12,16,0.029
2103700031,2006,03,12,17,0.029
2103700031,2006,03,12,18,0.027
2103700031,2006,03,12,19,0.025
2103700031,2006,03,12,20,0.026
2103700031,2006,03,12,21,0.016
2103700031,2006,03,12,22,0.014
2103700031,2006,03,12,23,0.018
2103700031,2006,03,13,00,0.022
2103700031,2006,03,13,01,0.02
2103700031,2006,03,13,02,0.022
2103700031,2006,03,13,03,0.023
2103700031,2006,03,13,04,0.024
2103700031,2006,03,13,05,0.023
2103700031,2006,03,13,06,0.022
2103700031,2006,03,13,07,0.022
2103700031,2006,03,13,08,0.025
2103700031,2006,03,13,09,0.029
2103700031,2006,03,13,10,0.029
2103700031,2006,03,13,11,0.026
2103700031,2006,03,13,12,0.024
2103700031,2006,03,13,13,0.024
2103700031,2006,03,13,14,0.028
2103700031,2006,03,13,15,0.027
2103700031,2006,03,13,16,99
2103700031,2006,03,13,17,99
2103700031,2006,03,13,18,99
2103700031,2006,03,13,19,99
2103700031,2006,03,13,20,99
2103700031,2006,03,13,21,99
2103700031,2006,03,13,22,99
2103700031,2006,03,13,23,99
2103700031,2006,03,14,00,99
2103700031,2006,03,14,01,99
2103700031,2006,03,14,02,99
2103700031,2006,03,14,03,99
2103700031,2006,03,14,04,99
2103700031,2006,03,14,05,99
2103700031,2006,03,14,06,99
2103700031,2006,03,14,07,99
2103700031,2006,03,14,08,99
2103700031,2006,03,14,09,99
2103700031,2006,03,14,10,99
2103700031,2006,03,14,11,99
2103700031,2006,03,14,12,99
2103700031,2006,03,14,13,99
2103700031,2006,03,14,14,99
2103700031,2006,03,14,15,99
2103700031,2006,03,14,16,99
2103700031,2006,03,14,17,99
2103700031,2006,03,14,18,99
2103700031,2006,03,14,19,99
2103700031,2006,03,14,20,99
2103700031,2006,03,14,21,99
2103700031,2006,03,14,22,99
2103700031,2006,03,14,23,99
2103700031,2006,03,15,00,99
2103700031,2006,03,15,01,99
2103700031,2006,03,15,02,99
2103700031,2006,03,15,03,99
2103700031,2006,03,15,04,99
2103700031,2006,03,15,05,99
2103700031,2006,03,15,06,99
2103700031,2006,03,15,07,99
2103700031,2006,03,15,08,99
